Other Public Products
Issued by NWS Charleston, SC

Current Version | Previous Version | Graphics & Text | Print | Product List | Glossary On
Versions: 1 2 3 4 5 6 7 8 9 10 11 12 13 14 15 16 17 18 19 20 21 22 23 24 25 26 27 28 29 30 31 32 33 34 35 36 37 38 39 40 41 42 43 44 45 46 47 48 49 50
733
FPUS82 KCHS 270527
OPUCHS

TEST...KCHS/KSAV Gateway Observations...TEST
National Weather Service Charleston SC
100 AM EDT THU APR 27 2017

NOTE: "fair" indicates few or no clouds below 12,000 feet with no
significant weather and/or obstructions to visibility.

SCZ050-WAZ558-NCZ071-TXZ119-213-PAZ071-DCZ001-FLZ074-172-MI076-
NYZ176-178-MAZ016-IL014-TNZ027-NJZ106-GAZ044-MD014-270600-

...Gateway Observations for Charleston International...

CITY           SKY/WX    TMP DP  RH WIND       PRES   REMARKS
Chas Airport   CLEAR     66  61  84 S6        29.88S
Seattle        PTCLDY    47  37  68 SW16      29.96R
Charlotte      CLEAR     66  58  75 S9        29.84S
Dallas DFW     CLEAR     53  46  77 SW7       29.79S
Dallas Love    PTCLDY    56  46  69 SW3       29.81R
Philladelphia  CLOUDY    62  56  80 CALM      29.86R
Wash National  PTCLDY    61  58  90 CALM      29.85S
Baltimore      CLEAR     55  55 100 CALM      29.84S FOG
Miami          MOCLDY    77  72  84 SE5       29.93F
Detroit        CLOUDY    67  54  63 E6        29.54F
Newark         DRIZZLE   59  58  96 SW3       29.85S FOG
Laguardia      DRZL/FOG  57  55  93 CALM      29.85R VSB 1/2
J F K          DRIZZLE   58  58 100 CALM      29.86R FOG
Boston Logan   CLOUDY    52  52 100 N6        29.85F
Ft. Lauderdale PTCLDY    78  73  84 SE12      29.92F
Chicago O`Hare LGT RAIN  61  58  90 SE10      29.41F FOG
Chicago Midway LGT RAIN  63  61  93 SE7       29.43F FOG
Houston Bush   MOCLDY    66  53  63 N14       29.78R
Houston Hobby  MOCLDY    69  51  52 N17G23    29.76R
Nashville      MOCLDY    74  58  57 S20G32    29.62R
Atlanta        CLEAR     68  57  68 S9        29.81S

$$

GAZ044-118-TXZ119-213-NCZ071-DCZ001-MDZ014-506-PAZ021-071-NJZ106-
NYZ176-178-MAZ106-OHZ011-021-055-MIZ076-KYZ091-ILZ014-INZ047-
MNZ060-ONZ431-270600-

...Gateway Observations for Savannah International...

CITY           SKY/WX    TMP DP  RH WIND       PRES   REMARKS
Savannah Arpt  CLEAR     70  62  76 S7        29.88S
Atlanta        CLEAR     68  57  68 S9        29.81S
Charlotte      CLEAR     66  58  75 S9        29.84S
Dallas DFW     CLEAR     53  46  77 SW7       29.79S
Houston Bush   MOCLDY    66  53  63 N14       29.78R
Wash National  PTCLDY    61  58  90 CALM      29.85S
Wash Dulles    CLEAR     59  56  89 E5        29.84S
Baltimore      CLEAR     55  55 100 CALM      29.84S FOG
Philadelphia   CLOUDY    62  56  80 CALM      29.86R
Newark         DRIZZLE   59  58  96 SW3       29.85S FOG
Laguardia      DRZL/FOG  57  55  93 CALM      29.85R VSB 1/2
J F K          DRIZZLE   58  58 100 CALM      29.86R FOG
Boston         CLOUDY    52  52 100 N6        29.85F
Pittsburg      PTCLDY    64  56  75 CALM      29.70S
Akron          PTCLDY    67  52  58 SE9       29.66F
Cleveland      MOCLDY    70  51  51 S12       29.62F
Cincinnati     MOCLDY    68  55  63 S12       29.58R
Columbus       CLEAR     67  53  59 SE8       29.60S
Detroit        CLOUDY    67  54  63 E6        29.54F
Chicago O`Hare LGT RAIN  61  58  90 SE10      29.41F FOG
Minneapolis    CLOUDY    36  30  79 N8        29.59R WCI  30
Indianapolis   CLOUDY    66  58  75 SW14G24   29.50R
Toronto Canada CLEAR     54  52  94 SE3       29.68F

$$




USA.gov is the U.S. government's official web portal to all federal, state and local government web resources and services.